Miscellaneous Local Product
Issued by NWS Hastings, NE

Home | Current Version | Previous Version | Text Only | Print | Product List | Glossary Off
Versions: 1 2 3 4 5 6 7 8 9 10 11 12 13 14 15 16 17 18 19 20 21 22 23 24 25 26 27 28 29 30 31 32 33 34 35 36 37 38 39 40 41 42 43 44 45 46 47 48 49 50

000
AXUS43 KGID 241102
MISGRI

GID CWA HOURLY WEATHER ROUNDUP
NATIONAL WEATHER SERVICE HASTINGS NE
500 AM CST WED DEC 24 2014

NOTE: "FAIR" INDICATES FEW OR NO CLOUDS BELOW 12,000 FEET WITH NO
SIGNIFICANT WEATHER AND/OR OBSTRUCTIONS TO VISIBILITY.

...SOUTH CENTRAL NEBRASKA...

CITY           SKY/WX    TMP DP  RH WIND       PRES   REMARKS
GRAND ISLAND   CLOUDY    27  23  85 NW13      29.95F WCI  16
HASTINGS       CLOUDY    27  23  85 NW15      29.93F WCI  15
KEARNEY        CLOUDY    27  21  80 NW16G22   29.95F WCI  14
ORD            CLOUDY    27  22  81 NW15G24   29.94F WCI  15
YORK           CLOUDY    30  28  93 N13G22    29.93F WCI  20
AURORA         CLOUDY    28  26  91 NW16G23   29.93F WCI  17
LEXINGTON      FAIR      23  19  87 NW12      29.97F WCI  11
HOLDREGE       FAIR      25  22  87 NW9G17    29.97S WCI  16
HEBRON         CLOUDY    31  27  82 NW16      29.94F WCI  20

...NEBRASKA PANHANDLE...

CITY           SKY/WX    TMP DP  RH WIND       PRES   REMARKS
CHADRON        FAIR       3   0  87 SW5       29.94F WCI  -6
ALLIANCE       FAIR       6   2  83 W7        29.94F WCI  -6
SCOTTSBLUFF    FAIR       9   6  88 CALM      29.96F
SIDNEY         FAIR      18  10  71 W13       29.95F WCI   5

...WESTERN AND NORTH CENTRAL NEBRASKA...

CITY           SKY/WX    TMP DP  RH WIND       PRES   REMARKS
VALENTINE      FAIR      13  10  88 W7        29.95F WCI   3
AINSWORTH      FAIR      18  15  89 W7        29.95F WCI   8
ONEILL         CLOUDY    26  25  99 NW14      29.94F WCI  14
BROKEN BOW     FAIR      20  16  84 W6        29.95F WCI  12
IMPERIAL       FAIR      16  10  77 W9        30.01F WCI   4
NORTH PLATTE   FAIR      16  13  88 NW9       29.98F WCI   4
MCCOOK         FAIR      20  15  81 W12       30.01F WCI   8

...EASTERN NEBRASKA...

CITY           SKY/WX    TMP DP  RH WIND       PRES   REMARKS
NORFOLK        CLOUDY    28  26  92 NW15G23   29.90F WCI  16
SO SIOUX CITY  CLOUDY    33  30  88 NW22G29   29.88F WCI  21
TEKAMAH        CLOUDY    34  30  85 NW15G24   29.91S WCI  24
COLUMBUS       CLOUDY    28  21  74 NW16G24   29.92F WCI  17
ALBION         CLOUDY    28  24  86 NW17      29.93F WCI  16
OMAHA EPPLEY   FLURRIES  34  31  88 NW20      29.89F WCI  23
OFFUTT AFB     CLOUDY    34  31  88 NW14      29.88S WCI  25
MILLARD        CLOUDY    34  31  89 NW13G23   29.89S WCI  25
LINCOLN        CLOUDY    32  28  85 NW14      29.93S WCI  22
NEBRASKA CITY  CLOUDY    33  33  99 N16G22    29.87S WCI  23
BEATRICE       CLOUDY    32  30  91 N15G22    29.91S WCI  22
FALLS CITY     CLOUDY    35  32  88 NW14      29.85S WCI  26

...NORTHERN KANSAS...

CITY           SKY/WX    TMP DP  RH WIND       PRES   REMARKS
GOODLAND       FAIR      14  10  84 W12       30.00F WCI   0
HILL CITY      FAIR      26  18  71 NW9       30.00F WCI  17
NORTON         SUNNY     25  18  74 NW15      29.97F WCI  12
PHILLIPSBURG   CLEAR     28  25  86 NW14      29.98F WCI  17
SMITH CENTER   CLEAR     28  25  86 NW10      29.97F WCI  19
BELOIT         CLOUDY    32  27  80 NW7       29.96S WCI  26
HAYS           FAIR      28  16  59 NW17G23   29.98S WCI  16
RUSSELL        MOCLDY    29  25  85 NW16      29.96F WCI  17
CONCORDIA      CLOUDY    31  27  85 NW10      29.94F WCI  22
SALINA         CLOUDY    33  28  81 NW14      29.96S WCI  23
TOPEKA         MIX PCPN  37  33  85 NW14      29.87S WCI  28



USA.gov is the U.S. government's official web portal to all federal, state and local government web resources and services.